Taunton, MA

1:19 PM EDT on June 29, 2017 (GMT -0400)
Taunton Municipal

Weather History for KTAN - November, 2012

Change the Weather History Date:

Tuesday, November 13, 2012

  Actual Average Record
Temperature  
Mean Temperature 54 °F -  
Max Temperature 66 °F 49 °F 68 °F (1964)
Min Temperature 42 °F 31 °F 1 °F (1997)
Degree Days  
Heating Degree Days 11    
Growing Degree Days 4 (Base 50)    
Moisture  
Dew Point 48 °F    
Average Humidity 82    
Maximum Humidity 90    
Minimum Humidity 60    
Precipitation  
Precipitation 0.14 in - - ()
Sea Level Pressure  
Sea Level Pressure 30.25 in    
Wind  
Wind Speed 10 mph (WNW)    
Max Wind Speed 16 mph    
Max Gust Speed 25 mph    
Visibility 9 miles    
Events Rain    
Averages and records for this station are not official NWS values.
T = Trace of Precipitation, MM = Missing Value Source: NWS Daily Summary

Daily Weather History Graph

Daily Weather History Graph

Search for Another Location

Airport or City:

Trip Planner

Search our weather history database for the weather conditions in past years. The results will help you decide how hot, cold, wet, or windy it might be!

Date:

Astronomy

Nov. 13, 2012 Rise Set
Actual Time 6:31 AM EST 4:24 PM EST
Civil Twilight 6:01 AM EST 4:54 PM EST
Nautical Twilight 5:28 AM EST 5:28 PM EST
Astronomical Twilight 4:55 AM EST 6:00 PM EST
Moon 6:06 AM EST (11/13) 4:14 PM EST (11/13)
Length of Visible Light 10h 52m
Length of Day
9h 52m
Waning Crescent, 0% of the Moon is Illuminated
Nov 13
Waning Crescent
Nov 13
New
Nov 20
First Quarter
Nov 28
Full
Dec 6
Last Quarter

Hourly Weather History & Observations

Time (EST) Temp. Windchill Dew Point Humidity Pressure Visibility Wind Dir Wind Speed Gust Speed Precip Events Conditions
12:52 AM 64.0 °F - 60.1 °F 87% 30.23 in 10.0 mi South 13.8 mph 19.6 mph N/A   Mostly Cloudy
1:11 AM 64.9 °F - 60.1 °F 84% 30.22 in 10.0 mi South 12.7 mph 25.3 mph N/A   Mostly Cloudy
1:52 AM 64.9 °F - 60.1 °F 84% 30.22 in 10.0 mi South 12.7 mph 23.0 mph N/A   Mostly Cloudy
2:41 AM 64.9 °F - 60.1 °F 84% 30.20 in 10.0 mi South 12.7 mph - N/A   Overcast
2:52 AM 64.9 °F - 60.1 °F 84% 30.19 in 10.0 mi South 9.2 mph - N/A   Overcast
3:52 AM 64.9 °F - 60.1 °F 84% 30.17 in 10.0 mi South 10.4 mph 24.2 mph N/A   Overcast
4:52 AM 64.9 °F - 60.1 °F 84% 30.16 in 10.0 mi South 11.5 mph 20.7 mph N/A   Overcast
5:11 AM 64.9 °F - 60.1 °F 84% 30.16 in 10.0 mi South 13.8 mph 23.0 mph N/A   Overcast
5:52 AM 66.0 °F - 60.1 °F 81% 30.17 in 10.0 mi South 12.7 mph 23.0 mph 0.00 in Rain Light Rain
7:26 AM 64.9 °F - 60.1 °F 84% 30.16 in 10.0 mi SSW 11.5 mph 20.7 mph N/A   Overcast
7:42 AM 66.0 °F - 60.1 °F 81% 30.16 in 10.0 mi SSW 11.5 mph 20.7 mph N/A   Overcast
7:49 AM 66.2 °F - 60.8 °F 83% 30.16 in 10.0 mi SSW 9.2 mph 19.6 mph N/A   Overcast
7:52 AM 66.0 °F - 60.1 °F 81% 30.17 in 10.0 mi SSW 9.2 mph 16.1 mph N/A   Overcast
8:52 AM 66.0 °F - 60.1 °F 81% 30.16 in 10.0 mi SW 9.2 mph - N/A   Overcast
9:15 AM 55.0 °F - 50.0 °F 83% 30.20 in 3.0 mi WNW 16.1 mph 25.3 mph 0.03 in Rain Heavy Rain
9:40 AM 53.1 °F - 50.0 °F 89% 30.22 in 10.0 mi WNW 9.2 mph - 0.03 in Rain Light Rain
9:52 AM 53.1 °F - 48.0 °F 83% 30.23 in 10.0 mi NW 8.1 mph - 0.03 in   Overcast
10:49 AM 51.8 °F - 48.2 °F 88% 30.24 in 9.0 mi WNW 8.1 mph - 0.00 in Rain Light Rain
10:52 AM 52.0 °F - 48.0 °F 86% 30.24 in 5.0 mi NW 6.9 mph - 0.01 in Rain Light Rain
11:02 AM 52.0 °F - 48.0 °F 86% 30.24 in 6.0 mi NW 9.2 mph - 0.00 in Rain Light Rain
11:13 AM 52.0 °F - 48.0 °F 86% 30.23 in 10.0 mi North 6.9 mph - 0.00 in   Overcast
11:21 AM 52.0 °F - 48.0 °F 86% 30.23 in 10.0 mi NNW 8.1 mph - 0.00 in   Overcast
11:52 AM 51.1 °F - 46.0 °F 83% 30.22 in 10.0 mi NNW 3.5 mph - 0.00 in   Overcast
12:52 PM 51.1 °F - 44.1 °F 77% 30.22 in 10.0 mi WNW 3.5 mph - 0.00 in Rain Light Rain
1:52 PM 51.1 °F - 41.0 °F 68% 30.23 in 10.0 mi NW 8.1 mph - 0.00 in   Overcast
2:52 PM 46.9 °F - 43.0 °F 86% 30.26 in 8.0 mi NW 4.6 mph - 0.02 in Rain Light Rain
3:03 PM 46.9 °F - 43.0 °F 86% 30.26 in 7.0 mi NW 9.2 mph - 0.01 in Rain Light Rain
3:16 PM 46.9 °F - 43.0 °F 86% 30.26 in 10.0 mi NW 6.9 mph - 0.01 in Rain Light Rain
3:36 PM 46.0 °F 42.5 °F 42.1 °F 86% 30.27 in 10.0 mi NW 6.9 mph - 0.01 in   Overcast
3:52 PM 46.0 °F 44.8 °F 42.1 °F 86% 30.27 in 10.0 mi NNW 3.5 mph - 0.02 in Rain Light Rain
4:17 PM 46.0 °F 43.1 °F 43.0 °F 89% 30.29 in 6.0 mi WNW 5.8 mph - 0.01 in Rain Light Rain
4:28 PM 46.0 °F 42.5 °F 43.0 °F 89% 30.29 in 10.0 mi Variable 6.9 mph - 0.02 in Rain Light Rain
4:52 PM 45.0 °F 41.2 °F 42.1 °F 90% 30.30 in 10.0 mi NW 6.9 mph - 0.02 in Rain Light Rain
5:02 PM 45.0 °F 39.7 °F 41.0 °F 86% 30.30 in 10.0 mi NW 10.4 mph - 0.00 in Rain Light Rain
5:52 PM 44.1 °F 42.5 °F 41.0 °F 89% 30.32 in 10.0 mi NNW 3.5 mph - 0.04 in Rain Light Rain
6:52 PM 44.1 °F 42.5 °F 39.9 °F 85% 30.34 in 10.0 mi NNW 3.5 mph - 0.00 in   Overcast
7:52 PM 44.1 °F 40.8 °F 39.0 °F 82% 30.35 in 10.0 mi NNW 5.8 mph - 0.00 in   Overcast
8:52 PM 44.1 °F 40.1 °F 39.0 °F 82% 30.37 in 10.0 mi North 6.9 mph - N/A   Overcast
9:52 PM 43.0 °F 38.8 °F 32.0 °F 65% 30.39 in 10.0 mi North 6.9 mph - N/A   Overcast
10:52 PM 43.0 °F 39.5 °F 30.0 °F 60% 30.39 in 10.0 mi North 5.8 mph - N/A   Overcast
11:33 PM 42.1 °F 37.1 °F 30.0 °F 62% 30.40 in 10.0 mi NNW 8.1 mph - 0.00 in Rain Light Rain
11:52 PM 42.1 °F 38.4 °F 30.9 °F 65% 30.40 in 10.0 mi NNW 5.8 mph - 0.00 in   Overcast